TimeEST,TemperatureF,Dew PointF,Humidity,Sea Level PressureIn,VisibilityMPH,Wind Direction,Wind SpeedMPH,Gust SpeedMPH,PrecipitationIn,Events,Conditions,WindDirDegrees,DateUTC
12:17 AM,57.2,53.6,88,30.20,10.0,Calm,Calm,-,N/A,,Overcast,0,2013-11-16 05:17:00
12:53 AM,57.9,55.0,90,30.19,10.0,Calm,Calm,-,N/A,,Overcast,0,2013-11-16 05:53:00
1:53 AM,57.9,55.0,90,30.19,10.0,Calm,Calm,-,N/A,,Overcast,0,2013-11-16 06:53:00
2:42 AM,57.2,55.4,94,30.20,6.0,Calm,Calm,-,N/A,,Overcast,0,2013-11-16 07:42:00
2:53 AM,57.0,55.9,96,30.20,5.0,Calm,Calm,-,N/A,,Overcast,0,2013-11-16 07:53:00
3:23 AM,57.2,55.4,94,30.20,2.0,Calm,Calm,-,N/A,,Overcast,0,2013-11-16 08:23:00
3:37 AM,57.2,55.4,94,30.20,5.0,NNW,3.5,-,N/A,,Overcast,340,2013-11-16 08:37:00
3:53 AM,57.9,55.9,93,30.19,5.0,North,4.6,-,N/A,,Overcast,360,2013-11-16 08:53:00
4:30 AM,57.2,55.4,94,30.20,8.0,Calm,Calm,-,N/A,,Overcast,0,2013-11-16 09:30:00
4:53 AM,57.9,55.9,93,30.19,10.0,North,3.5,-,N/A,,Overcast,350,2013-11-16 09:53:00
5:53 AM,57.9,55.0,90,30.19,10.0,Calm,Calm,-,N/A,,Overcast,0,2013-11-16 10:53:00
6:53 AM,57.9,55.0,90,30.21,10.0,Calm,Calm,-,N/A,,Overcast,0,2013-11-16 11:53:00
7:53 AM,57.9,55.0,90,30.21,9.0,North,3.5,-,N/A,,Overcast,10,2013-11-16 12:53:00
8:53 AM,59.0,55.0,87,30.24,9.0,NE,5.8,-,N/A,,Overcast,40,2013-11-16 13:53:00
9:17 AM,59.0,55.4,88,30.24,9.0,Calm,Calm,-,N/A,,Overcast,0,2013-11-16 14:17:00
9:53 AM,60.1,55.9,86,30.25,10.0,ESE,4.6,-,N/A,,Overcast,110,2013-11-16 14:53:00
10:16 AM,60.8,55.4,82,30.26,10.0,Calm,Calm,-,N/A,,Overcast,0,2013-11-16 15:16:00
10:53 AM,62.1,55.9,80,30.25,10.0,NE,5.8,-,N/A,,Scattered Clouds,50,2013-11-16 15:53:00
11:13 AM,64.4,57.2,77,30.25,10.0,East,6.9,-,N/A,,Scattered Clouds,80,2013-11-16 16:13:00
11:53 AM,66.9,57.0,70,30.23,10.0,SE,8.1,-,N/A,,Scattered Clouds,130,2013-11-16 16:53:00
12:53 PM,68.0,57.9,70,30.20,10.0,South,8.1,-,N/A,,Clear,170,2013-11-16 17:53:00
1:53 PM,70.0,57.9,65,30.17,10.0,Calm,Calm,-,N/A,,Clear,0,2013-11-16 18:53:00
2:53 PM,72.0,57.0,59,30.16,10.0,Calm,Calm,-,N/A,,Clear,0,2013-11-16 19:53:00
3:53 PM,73.0,57.0,57,30.15,10.0,Calm,Calm,-,N/A,,Partly Cloudy,0,2013-11-16 20:53:00
4:53 PM,69.1,57.0,65,30.14,10.0,SSW,3.5,-,N/A,,Clear,200,2013-11-16 21:53:00
5:53 PM,62.1,57.9,86,30.15,10.0,Calm,Calm,-,N/A,,Mostly Cloudy,0,2013-11-16 22:53:00
6:53 PM,62.1,57.0,84,30.17,10.0,Calm,Calm,-,N/A,,Overcast,0,2013-11-16 23:53:00
7:53 PM,61.0,57.0,87,30.19,10.0,Calm,Calm,-,N/A,,Overcast,0,2013-11-17 00:53:00
8:53 PM,61.0,57.0,87,30.19,10.0,Calm,Calm,-,N/A,,Overcast,0,2013-11-17 01:53:00
9:53 PM,60.1,57.0,90,30.19,10.0,Calm,Calm,-,N/A,,Mostly Cloudy,0,2013-11-17 02:53:00
10:53 PM,57.0,55.9,96,30.20,7.0,Calm,Calm,-,N/A,,Scattered Clouds,0,2013-11-17 03:53:00
11:53 PM,53.1,53.1,100,30.18,4.0,Calm,Calm,-,N/A,,Clear,0,2013-11-17 04:53:00
11:57 PM,53.6,53.6,100,30.18,1.5,Calm,Calm,-,N/A,,Clear,0,2013-11-17 04:57:00